Regional Weather Roundup
Issued by NWS

Home | Current Version | Previous Version | Graphics & Text | Print | Product List | Glossary On
Versions: 1 2 3 4 5 6 7 8 9 10 11 12 13 14 15 16 17 18 19 20 21 22 23 24 25 26 27 28 29 30 31 32 33 34 35 36 37 38 39 40 41 42 43 44 45 46 47 48 49 50
000
ASUS45 KBOU 230907
RWRCO

WEATHER ROUNDUP FOR COLORADO
NATIONAL WEATHER SERVICE DENVER/BOULDER CO
300 AM MDT SAT SEP 23 2017

NOTE: "FAIR" INDICATES FEW OR NO CLOUDS BELOW 12000 FEET WITH NO
SIGNIFICANT WEATHER AND/OR OBSTRUCTIONS TO VISIBILITY.

COZ001>005-013-030-031-231000-
...NORTHWEST COLORADO...

CITY           SKY/WX    TMP DP  RH WIND       PRES   REMARKS
CRAIG          CLOUDY    42  36  79 VRB3      29.98R
HAYDEN         FAIR      41  39  93 W10       29.96F
MEEKER         CLOUDY    46  41  82 NE12      29.92F
RABBIT EARS PA LGT RAIN  37  32  81 SE3       30.09F
STEAMBOAT SPGS MOCLDY    42  39  88 NE5       29.94F
WALDEN         MOCLDY    37  32  81 CALM      30.01F
$$

COZ006>008-011-231000-
...WEST CENTRAL VALLEYS...

CITY           SKY/WX    TMP DP  RH WIND       PRES   REMARKS
GRAND JUNCTION CLOUDY    57  33  40 N6        29.82R
MONTROSE       CLOUDY    61  35  37 SW9       29.89R
EAGLE          CLOUDY    46  38  73 CALM      29.95F
RIFLE          MOCLDY    59  37  44 SE13G20   29.85R
DELTA          NOT AVBL
NUCLA          RAIN      55  39  54 S14G22    29.93R
$$

COZ017>023-064>068-231000-
...SOUTHWEST COLORADO...

CITY           SKY/WX    TMP DP  RH WIND       PRES   REMARKS
DURANGO        FAIR      53  46  77 E8        29.95F
CORTEZ         LGT RAIN  49  46  90 E9        29.89F
PAGOSA SPRINGS MOCLDY    48  47  97 N5        30.05S
TELLURIDE      MOCLDY    52  32  46 S8G16     30.03F
WOLF CREEK PAS CLOUDY    34  34 100 S21G35    30.25F VSB<1/4 WCI  22
$$

COZ009-010-012-014-032>034-037-058>063-231000-
...CENTRAL COLORADO...

CITY           SKY/WX    TMP DP  RH WIND       PRES   REMARKS
ASPEN          MOCLDY    55  35  47 S15       29.97R
BUENA VISTA    RAIN      49  42  78 S6        30.07S
COPPER MTN     FAIR      41  30  65 S17       30.19F
BERTHOUD PASS  LGT SNOW  32  25  74 S20G46    30.20F WCI  20
COTTONWOOD PAS CLOUDY    46  43  87 CALM      30.14S
GUNNISON       FAIR      51  36  56 W3        30.01S
KREMMLING      FAIR      43  37  81 CALM      29.99R
LEADVILLE      LGT RAIN  42  33  70 SE10      30.09F
MONARCH PASS   MIX PCPN  34  32  93 SW21G37   30.33F VSB 1/4 WCI  22
SALIDA         CLOUDY    52  45  76 CALM      30.14R
SUNLIGHT       FAIR      36  30  80 SW8G16    30.13F
WILKERSON PASS DRIZZLE   37  34  87 SW16G24   30.24S
$$

COZ069>075-231000-
...SAN LUIS VALLEY/SANGRE DE CRISTO MOUNTAINS...

CITY           SKY/WX    TMP DP  RH WIND       PRES   REMARKS
ALAMOSA        MOCLDY    47  43  86 N6        30.05S
DEL NORTE      RAIN      44  42  92 W9        30.07S
LA VETA PASS   FAIR      45  36  70 S15G25    30.28F
SAGUACHE       MOCLDY    46  43  87 NE8       30.07F
$$

COZ035-036-038>040-231000-
...NORTHERN COLORADO FRONT RANGE...

CITY           SKY/WX    TMP DP  RH WIND       PRES   REMARKS
DENVER INTL AP MOCLDY    51  38  60 NW8       29.98S
DMNS CITY PARK   N/A     51  36  57 NE7G14    29.97F
AURORA         MOCLDY    49  41  73 E5        29.98F
FRONT RANGE AP CLOUDY    48  43  81 W7        30.00R
ERIE MUNI ARPT MOCLDY    51  37  58 N5        30.03R
BOULDER MUN AP MOCLDY    52  37  58 E9        29.98R
CENTENNIAL     MOCLDY    51  40  65 N7        29.98F
BROOMFIELD     FAIR      50  37  62 N3        29.99F
FORT COLLINS   FAIR      50  39  66 N6        30.00R
LONGMONT       FAIR      52  39  62 NE3       30.00R
$$

COZ041-046-047-076>085-087-088-231000-
...PIKES PEAK/PALMER DIVIDE AND SOUTHERN FOOTHILLS...

CITY           SKY/WX    TMP DP  RH WIND       PRES   REMARKS
COLO. SPRINGS  FAIR      54  40  59 NW9       29.97F
A. F. ACADEMY  CLOUDY    52  37  57 N9        29.99S
SCHRIEVER AFB  MOCLDY    53  38  58 N10G20    29.96S
CHEYENNE MTN   FAIR      53  38  55 NW8       29.94F
ELLICOTT         N/A    N/A N/A N/A N10       29.95S
FALCON         CLOUDY    50  37  61 N14G20    30.01S
FORT CARSON    FAIR      55  39  55 NW13      29.93F
LIMON            N/A    N/A N/A N/A MISG      29.95R
MONUMENT HILL  MOCLDY    43  39  87 NW7       30.04F
CANON CITY     MOCLDY    63  43  48 S7        29.91R
WALSENBURG     FAIR      57  43  58 CALM      29.93F
TRINIDAD       FAIR      69  55  60 S17G28    29.92S
$$

COZ042>045-048>051-090-091-231000-
...NORTHEAST COLORADO...

CITY           SKY/WX    TMP DP  RH WIND       PRES   REMARKS
GREELEY ARPT   MOCLDY    50  40  68 NE8       29.98R
AKRON          FAIR      47  41  80 NE12      29.92R
BURLINGTON     MOCLDY    71  60  68 S20       29.86F
WRAY           FAIR      54  52  94 N14       29.88R
YUMA           CLOUDY    50  43  76 N15G22    29.89S
STERLING       FAIR      48  43  81 NE10G16   29.91F
HOLYOKE        FAIR      54  46  76 N15       29.91R
FORT MORGAN    FAIR      50  40  69 NE9       29.95R
$$

COZ086-089-092>099-231000-
...SOUTHEAST COLORADO...

CITY           SKY/WX    TMP DP  RH WIND       PRES   REMARKS
PUEBLO         FAIR      62  41  46 N12G23    29.88R
LA JUNTA       FAIR      69  51  52 NW9       29.84R
LAMAR          FAIR      72  61  68 S25G32    29.79S
SPRINGFIELD      N/A     64  63  96 S14       29.91S
$$



USA.gov is the U.S. government's official web portal to all federal, state and local government web resources and services.